N1NAZ-1 Weather Reports


time (UTC)temp
F
wind
direction
speed
knots
gust
knots
rain 1hr
in
rain 24hr
in
rain mn
in
humidity
%
barometer
mb
20260507071241 50 33 0.0 2.6 0.00 0.29 0.00 89 1006.1
20260507064233 51 355 0.9 7.0 0.00 0.29 0.00 89 1006.1
20260507061234 51 222 0.9 7.0 0.00 0.29 0.00 89 1005.8
20260507054233 51 264 0.9 7.0 0.00 0.29 0.00 90 1006.6
20260507051224 52 308 0.9 7.0 0.00 0.29 0.00 91 1006.5
20260507044221 53 0 1.7 7.8 0.00 0.29 0.00 93 1006.0
20260507041222 54 306 0.9 7.8 0.00 0.29 0.00 94 1006.3
20260507034222 55 336 3.5 8.7 0.00 0.29 0.29 95 1005.9
20260507032550 56 14 0.9 8.7 0.00 0.29 0.29 96 1005.3
20260507024208 59 277 0.0 2.6 0.00 0.29 0.29 97 1005.2
20260507021153 59 149 0.0 1.7 0.01 0.29 0.29 97 1004.6
20260507014133 59 130 0.0 4.3 0.01 0.29 0.29 97 1004.7
20260507011126 59 192 0.0 4.3 0.00 0.28 0.28 97 1004.7
20260507004125 59 190 0.0 5.2 0.00 0.28 0.28 96 1004.7
20260507001123 59 126 0.0 3.5 0.00 0.28 0.28 96 1004.6
20260506234122 59 157 0.0 7.0 0.04 0.28 0.28 96 1004.4
20260506232509 59 162 0.9 6.1 0.05 0.28 0.28 96 1004.4
20260506224044 59 209 0.9 6.1 0.03 0.24 0.24 96 1004.6
20260506221040 60 134 0.9 6.1 0.05 0.23 0.23 95 1004.7
20260506214040 60 149 0.9 7.0 0.08 0.21 0.21 95 1004.8
20260506211043 60 171 1.7 12.2 0.10 0.18 0.18 94 1005.0
20260506204025 61 166 0.9 10.4 0.05 0.13 0.13 94 1005.3
20260506201028 61 122 0.9 7.8 0.01 0.08 0.09 93 1005.4
20260506195401 62 201 0.9 8.7 0.03 0.08 0.08 93 1005.5
20260506191012 63 167 0.0 2.6 0.07 0.07 0.07 91 1005.2
20260506184012 64 26 0.0 3.5 0.05 0.05 0.05 89 1005.7
20260506181024 67 262 0.9 7.8 0.00 0.00 0.01 80 1006.3
20260506174010 70 281 2.6 20.9 0.00 0.00 0.00 67 1006.1
20260506170946 74 185 2.6 15.6 0.00 0.00 0.00 60 1005.7
20260506163923 72 277 1.7 10.4 0.00 0.00 0.00 64 1006.1
20260506160855 71 143 0.9 10.4 0.00 0.00 0.00 66 1006.6
20260506155242 70 135 0.9 9.6 0.00 0.00 0.00 67 1007.4
20260506150831 71 152 0.9 12.2 0.00 0.00 0.00 67 1007.8
20260506143826 69 165 1.7 8.7 0.00 0.00 0.00 69 1007.7
20260506140819 69 95 2.6 7.8 0.00 0.00 0.00 71 1007.4
20260506133832 67 199 0.9 8.7 0.00 0.00 0.00 74 1007.7
20260506130819 65 158 1.7 8.7 0.00 0.00 0.00 75 1008.3
20260506124927 64 163 0.9 6.1 0.00 0.00 0.00 78 1008.4
20260506123820 65 118 0.9 7.0 0.00 0.00 0.00 76 1008.1
20260506120517 62 143 0.9 8.7 0.00 0.00 0.00 80 1008.5
20260506110749 61 166 0.9 7.0 0.00 0.00 0.00 81 1008.7
20260506110514 60 178 0.9 5.2 0.00 0.00 0.00 81 1008.7
20260506100739 60 149 0.9 5.2 0.00 0.00 0.00 80 1008.6
20260506095118 60 194 0.9 7.0 0.00 0.00 0.00 80 1008.4
20260506090737 61 155 0.9 7.0 0.00 0.00 0.00 78 1008.4
20260506083735 61 148 0.9 8.7 0.00 0.00 0.00 77 1008.5
20260506080737 62 190 0.9 7.8 0.00 0.00 0.00 76 1008.4